User: anonymous   Login
Location: Oshawa
(43.9000°N, 78.8670°W)
Time: 03:16:55
(UTC-04:00)
Language:

SPOT 5 - Orbit

View from above orbital plane
View from above orbital plane
View from above satellite
View from above satellite

Ground track
Ground track

The orbit data is extracted from the following two-line orbital elements,

1 27421U 02021A   17083.78961939 -.00000002 +00000-0 +11560-4 0  9992
2 27421 098.4156 146.9583 0134260 226.5476 132.4475 14.51846494773420
Epoch (UTC): 24 March 2017 18:57:03
Eccentricity: 0.0134260
inclination: 98.4156°
perigee height: 624 km
apogee height: 815 km
right ascension of ascending node: 146.9583°
argument of perigee: 226.5476°
revolutions per day: 14.51846494
mean anomaly at epoch: 132.4475°
orbit number at epoch: 77342

The dashed part of the orbit path shows where the satellite is in the earth's shadow,  

DLR